Date String (YYYY-MM-DD hh:mm:ss) UTC,Instrument flags,Ambient pressure (hPa),Sample flow (lpm),Bypass flow (lpm),Sample temperature (°C),Ambient temperature (°C),ASC tube jacket temperature (°C),LED temperature (°C),Box temperature (°C),Sample RH (%),Span deviation,Mass concentration (μg/m³),Mass concentration (μg/m³),Mass concentration (μg/m³)
DateTimeUTC,F1_M11,P_M11,Q1_M11,Q2_M11,T1_M11,T2_M11,T3_M11,T4_M11,T5_M11,U1_M11,ZSPAN_M11,X0_M11,X2_M11,X1_M11
2023-03-02 11:00:00,,0815.6,5.01,0.00,22.5,21.2,00.0,31.2,24.1,12.0,0000.0,0013.78,0006.48,0005.76
2023-03-02 11:01:00,,0815.4,5.01,0.00,22.5,21.1,00.0,31.2,24.0,12.0,0000.0,0014.06,0006.49,0005.76
2023-03-02 11:02:00,,0815.5,5.00,0.00,22.4,21.0,00.0,31.2,24.0,12.0,0000.0,0013.95,0006.49,0005.76
2023-03-02 11:03:00,,0815.3,5.00,0.00,22.4,20.9,00.0,31.2,24.0,12.0,0000.0,0014.17,0006.53,0005.76
2023-03-02 11:04:00,,0815.2,5.01,0.00,22.4,20.8,00.0,31.2,24.0,12.0,0000.0,0014.02,0006.54,0005.74
2023-03-02 11:05:00,,0815.2,5.01,0.00,22.3,20.7,00.0,31.2,24.0,12.0,0000.0,0013.88,0006.57,0005.74
2023-03-02 11:06:00,,0815.1,5.00,0.00,22.3,20.7,00.0,31.2,24.0,12.0,0000.0,0013.78,0006.58,0005.75
2023-03-02 11:07:00,,0815.2,5.00,0.00,22.3,20.6,00.0,31.2,23.9,12.0,0000.0,0014.34,0006.57,0005.75
2023-03-02 11:08:00,,0815.1,4.99,0.00,22.3,21.1,00.0,31.1,24.0,12.0,0000.0,0013.81,0006.57,0005.76
2023-03-02 11:09:00,,0815.2,4.99,0.00,22.4,22.3,00.0,31.1,24.3,12.0,0000.0,0013.57,0006.57,0005.77
2023-03-02 11:10:00,,0815.1,5.01,0.00,22.5,23.1,00.0,31.1,24.5,11.9,0000.0,0013.83,0006.53,0005.76
2023-03-02 11:11:00,,0815.2,4.98,0.00,22.6,22.8,00.0,31.2,24.5,11.8,0000.0,0014.02,0006.54,0005.76
2023-03-02 11:12:00,,0815.1,4.98,0.00,22.6,22.4,00.0,31.2,24.4,11.9,0000.0,0013.58,0006.51,0005.76
2023-03-02 11:13:00,,0815.1,4.99,0.00,22.6,22.0,00.0,31.2,24.3,11.9,0000.0,0013.16,0006.47,0005.75
2023-03-02 11:14:00,,0815.1,5.01,0.00,22.5,21.6,00.0,31.2,24.2,11.9,0000.0,0013.17,0006.38,0005.73
2023-03-02 11:15:00,,0815.1,5.00,0.00,22.5,21.4,00.0,31.2,24.1,11.9,0000.0,0013.82,0006.38,0005.74
2023-03-02 11:16:00,,0815.1,5.00,0.00,22.5,21.2,00.0,31.2,24.1,12.0,0000.0,0014.25,0006.41,0005.73
2023-03-02 11:17:00,,0815.2,5.00,0.00,22.5,21.0,00.0,31.2,24.1,12.0,0000.0,0014.35,0006.42,0005.72
2023-03-02 11:18:00,,0815.1,5.00,0.00,22.4,20.9,00.0,31.2,24.0,12.0,0000.0,0013.49,0006.42,0005.73
2023-03-02 11:19:00,,0815.1,5.00,0.00,22.4,20.8,00.0,31.2,24.0,12.0,0000.0,0012.75,0006.39,0005.71
2023-03-02 11:20:00,,0815.1,5.00,0.00,22.4,20.8,00.0,31.2,24.0,12.0,0000.0,0012.39,0006.36,0005.71
2023-03-02 11:21:00,,0815.3,5.00,0.00,22.3,20.7,00.0,31.2,23.9,12.0,0000.0,0011.90,0006.34,0005.71
2023-03-02 11:22:00,,0815.2,5.00,0.00,22.3,20.7,00.0,31.2,23.9,12.0,0000.0,0011.66,0006.31,0005.68
2023-03-02 11:23:00,,0815.7,5.00,0.00,22.3,20.7,00.0,31.2,23.9,12.0,0000.0,0011.71,0006.32,0005.68
2023-03-02 11:24:00,,0815.5,5.01,0.00,22.3,21.2,00.0,31.1,24.0,12.0,0000.0,0011.63,0006.33,0005.68
2023-03-02 11:29:00,,0815.1,4.99,0.00,22.6,21.9,00.0,31.2,24.3,11.7,0000.0,0009.81,0006.14,0005.61
2023-03-02 11:30:00,,0815.2,5.00,0.00,22.6,21.6,00.0,31.2,24.3,11.7,0000.0,0010.31,0006.11,0005.61
2023-03-02 11:31:00,,0815.1,5.00,0.00,22.5,21.4,00.0,31.2,24.2,11.7,0000.0,0010.44,0006.07,0005.59
2023-03-02 11:32:00,,0815.0,5.01,0.00,22.5,21.2,00.0,31.2,24.2,11.7,0000.0,0010.81,0006.04,0005.58
2023-03-02 11:33:00,,0815.0,5.02,0.00,22.5,21.0,00.0,31.2,24.1,11.7,0000.0,0011.24,0006.01,0005.58
2023-03-02 11:34:00,,0815.0,5.00,0.00,22.4,20.9,00.0,31.2,24.1,11.7,0000.0,0011.16,0005.97,0005.58
2023-03-02 11:35:00,,0815.1,5.02,0.00,22.4,20.7,00.0,31.2,24.0,11.8,0000.0,0011.10,0005.96,0005.57
2023-03-02 11:36:00,,0815.0,5.01,0.00,22.4,20.6,00.0,31.2,23.9,11.8,0000.0,0011.02,0005.98,0005.57
2023-03-02 11:37:00,,0815.0,5.01,0.00,22.3,20.4,00.0,31.2,23.8,11.8,0000.0,0011.16,0006.00,0005.58
2023-03-02 11:38:00,,0815.0,5.00,0.00,22.3,20.5,00.0,31.2,23.8,11.8,0000.0,0011.22,0006.03,0005.59
2023-03-02 11:39:00,,0815.0,5.01,0.00,22.4,21.5,00.0,31.1,24.1,11.8,0000.0,0011.22,0006.03,0005.61
2023-03-02 11:40:00,,0815.0,5.01,0.00,22.4,22.5,00.0,31.1,24.3,11.8,0000.0,0011.27,0006.04,0005.61
2023-03-02 11:41:00,,0815.2,5.00,0.00,22.6,23.3,00.0,31.2,24.5,11.8,0000.0,0011.02,0006.04,0005.61
2023-03-02 11:42:00,,0815.2,5.02,0.00,22.6,22.9,00.0,31.2,24.5,11.8,0000.0,0010.69,0006.05,0005.61
2023-03-02 11:43:00,,0815.1,5.00,0.00,22.6,22.4,00.0,31.2,24.4,11.8,0000.0,0010.76,0006.07,0005.63
2023-03-02 11:44:00,,0815.1,4.98,0.00,22.6,21.9,00.0,31.2,24.3,11.8,0000.0,0010.34,0006.09,0005.65
2023-03-02 11:45:00,,0815.1,4.99,0.00,22.6,21.6,00.0,31.2,24.2,11.9,0000.0,0010.86,0006.10,0005.66
2023-03-02 11:46:00,,0815.2,5.01,0.00,22.5,21.3,00.0,31.3,24.1,11.9,0000.0,0010.76,0006.09,0005.66
2023-03-02 11:47:00,,0815.1,4.99,0.00,22.5,21.0,00.0,31.2,24.0,11.9,0000.0,0010.67,0006.08,0005.67
2023-03-02 11:48:00,,0815.2,5.00,0.00,22.4,20.8,00.0,31.2,24.0,11.9,0000.0,0010.62,0006.07,0005.69
2023-03-02 11:49:00,,0815.1,5.00,0.00,22.4,20.6,00.0,31.2,23.9,12.0,0000.0,0010.48,0006.04,0005.70
2023-03-02 11:50:00,,0815.1,5.00,0.00,22.3,20.5,00.0,31.2,23.9,12.0,0000.0,0010.46,0006.05,0005.72
2023-03-02 11:51:00,,0815.2,5.01,0.00,22.3,20.4,00.0,31.2,23.9,12.0,0000.0,0010.41,0006.06,0005.73
2023-03-02 11:52:00,,0815.4,5.00,0.00,22.3,20.3,00.0,31.2,23.9,12.0,0000.0,0010.29,0006.08,0005.75
2023-03-02 11:53:00,,0815.5,5.00,0.00,22.3,20.6,00.0,31.1,23.8,12.0,0000.0,0010.24,0006.09,0005.78
2023-03-02 11:54:00,,0815.2,4.99,0.00,22.3,21.7,00.0,31.1,24.1,12.0,0000.0,0009.77,0006.08,0005.80
2023-03-02 11:55:00,,0815.2,5.00,0.00,22.4,22.7,00.0,31.1,24.3,12.0,0000.0,0009.50,0006.10,0005.81
2023-03-02 11:56:00,,0815.2,5.04,0.00,22.5,23.3,00.0,31.2,24.5,11.9,0000.0,0009.02,0006.13,0005.83
2023-03-02 11:57:00,,0815.4,5.00,0.00,22.6,22.9,00.0,31.2,24.4,11.9,0000.0,0009.74,0006.15,0005.84
2023-03-02 11:58:00,,0815.5,5.00,0.00,22.6,22.3,00.0,31.2,24.3,11.9,0000.0,0010.16,0006.17,0005.85
2023-03-02 11:59:00,,0815.2,4.99,0.00,22.6,21.8,00.0,31.2,24.2,12.0,0000.0,0010.08,0006.17,0005.85
